Powrót do katalogu

FENGYUN 1C DEB

AktywnyPO
NORAD 35111·DEBRIS·🇨🇳 China

Wystrzelony May 10, 1999 z Taiyuan Satellite Launch Center

Loading…

Następne Przeloty (najbliższe 24 godziny)

TLE

ŚwieżeSource: Space-Track

Epoka: Sep 12, 2026, 11:41 UTC

1 35111U 99025DKP 26255.48726773  .00000484  00000-0  29421-3 0  9997
2 35111  99.4568 353.5456 0022326 179.8808 180.2370 14.11344720680058

Śledź FENGYUN 1C DEB w czasie rzeczywistym z AllMySat

Download on the App Store